• In Russia
  • List of Countries
  • For 7 days
  • Water Temperature
  • Weather Map
  • Weather Widgets
  • user-avatar
    Login

    Hourly Weather Sevan

    Today, 25 August, Sunday

    Time Temperature Precipitation Wind Pressure Humidity
    00:00 +20°C° 0 mm 2 mps 643 mmHg 59%
    01:00 +19°C° 0 mm 2 mps 643 mmHg 60%
    02:00 +19°C° 0 mm 2 mps 643 mmHg 60%
    03:00 +18°C° 0 mm 2 mps 643 mmHg 64%
    04:00 +18°C° 0.1 mm 2 mps 643 mmHg 63%
    05:00 +20°C° 0.1 mm 1 mps 643 mmHg 62%
    06:00 +20°C° 0.1 mm 1 mps 643 mmHg 62%
    07:00 +22°C° 0.1 mm 1 mps 644 mmHg 55%
    08:00 +24°C° 0.1 mm 1 mps 645 mmHg 47%
    09:00 +27°C° 0.1 mm 1 mps 645 mmHg 40%
    10:00 +28°C° 0 mm 2 mps 645 mmHg 35%
    11:00 +29°C° 0 mm 3 mps 645 mmHg 31%
    12:00 +31°C° 0 mm 3 mps 645 mmHg 26%
    13:00 +31°C° 0 mm 3 mps 645 mmHg 26%
    14:00 +31°C° 0 mm 3 mps 644 mmHg 27%
    15:00 +31°C° 0 mm 2 mps 644 mmHg 27%
    16:00 +30°C° 0 mm 3 mps 644 mmHg 33%
    17:00 +28°C° 0 mm 4 mps 643 mmHg 38%
    18:00 +27°C° 0 mm 4 mps 643 mmHg 44%
    19:00 +25°C° 0 mm 4 mps 643 mmHg 49%
    20:00 +23°C° 0 mm 4 mps 643 mmHg 54%
    21:00 +21°C° 0 mm 4 mps 643 mmHg 59%
    22:00 +21°C° 0 mm 4 mps 643 mmHg 60%
    23:00 +20°C° 0 mm 3 mps 643 mmHg 61%

    Tomorrow, 26 August, Monday

    Time Temperature Precipitation Wind Pressure Humidity
    00:00 +19°C° 0 mm 3 mps 643 mmHg 63%
    01:00 +19°C° 0 mm 3 mps 643 mmHg 63%
    02:00 +19°C° 0 mm 2 mps 643 mmHg 64%
    03:00 +18°C° 0 mm 2 mps 643 mmHg 65%
    04:00 +18°C° 0 mm 2 mps 643 mmHg 64%
    05:00 +18°C° 0 mm 2 mps 643 mmHg 64%
    06:00 +18°C° 0 mm 2 mps 643 mmHg 63%
    07:00 +21°C° 0 mm 2 mps 644 mmHg 56%
    08:00 +24°C° 0 mm 2 mps 644 mmHg 48%
    09:00 +27°C° 0 mm 2 mps 645 mmHg 41%
    10:00 +28°C° 0.1 mm 2 mps 645 mmHg 37%
    11:00 +29°C° 0.1 mm 2 mps 645 mmHg 32%
    12:00 +31°C° 0.1 mm 3 mps 645 mmHg 28%
    13:00 +31°C° 0.1 mm 3 mps 645 mmHg 28%
    14:00 +31°C° 0.1 mm 3 mps 644 mmHg 28%
    15:00 +33°C° 0.1 mm 3 mps 644 mmHg 28%
    16:00 +30°C° 0.2 mm 3 mps 644 mmHg 35%
    17:00 +28°C° 0.2 mm 3 mps 643 mmHg 42%
    18:00 +26°C° 0.2 mm 4 mps 643 mmHg 49%
    19:00 +23°C° 0.9 mm 4 mps 643 mmHg 56%
    20:00 +21°C° 0.9 mm 5 mps 643 mmHg 62%
    21:00 +19°C° 0.9 mm 5 mps 643 mmHg 69%
    22:00 +19°C° 0.5 mm 4 mps 643 mmHg 70%
    23:00 +18°C° 0.5 mm 3 mps 643 mmHg 71%

    Day after tomorrow, 27 August, Tuesday

    Time Temperature Precipitation Wind Pressure Humidity
    00:00 +18°C° 0.5 mm 2 mps 643 mmHg 72%
    01:00 +18°C° 0.3 mm 2 mps 643 mmHg 72%
    02:00 +17°C° 0.3 mm 2 mps 643 mmHg 73%
    03:00 +17°C° 0.3 mm 2 mps 643 mmHg 73%
    04:00 +17°C° 0.1 mm 2 mps 643 mmHg 72%
    05:00 +18°C° 0.1 mm 1 mps 643 mmHg 72%
    06:00 +18°C° 0.1 mm 1 mps 643 mmHg 71%
    07:00 +20°C° 0 mm 1 mps 643 mmHg 65%
    08:00 +22°C° 0 mm 1 mps 644 mmHg 59%
    09:00 +24°C° 0 mm 2 mps 644 mmHg 52%
    10:00 +25°C° 0.1 mm 2 mps 644 mmHg 47%
    11:00 +27°C° 0.1 mm 2 mps 644 mmHg 42%
    12:00 +28°C° 0.1 mm 2 mps 644 mmHg 37%
    13:00 +29°C° 0.1 mm 2 mps 644 mmHg 35%
    14:00 +29°C° 0.1 mm 2 mps 644 mmHg 33%
    15:00 +30°C° 0.1 mm 2 mps 643 mmHg 31%
    16:00 +28°C° 0.2 mm 3 mps 643 mmHg 37%
    17:00 +27°C° 0.2 mm 4 mps 642 mmHg 43%
    18:00 +26°C° 0.2 mm 4 mps 642 mmHg 49%
    19:00 +23°C° 0 mm 5 mps 642 mmHg 52%
    20:00 +21°C° 0 mm 5 mps 642 mmHg 56%
    21:00 +20°C° 0 mm 5 mps 642 mmHg 59%
    22:00 +19°C° 0 mm 4 mps 642 mmHg 59%
    23:00 +19°C° 0 mm 4 mps 642 mmHg 59%

    28 August, Wednesday

    Time Temperature Precipitation Wind Pressure Humidity
    00:00 +18°C° 0 mm 3 mps 642 mmHg 59%
    01:00 +18°C° 0 mm 3 mps 642 mmHg 60%
    02:00 +18°C° 0 mm 3 mps 641 mmHg 61%
    03:00 +17°C° 0 mm 3 mps 641 mmHg 62%
    04:00 +17°C° 0 mm 2 mps 642 mmHg 62%
    05:00 +17°C° 0 mm 2 mps 642 mmHg 63%
    06:00 +17°C° 0 mm 2 mps 642 mmHg 63%
    07:00 +19°C° 0 mm 2 mps 642 mmHg 56%
    08:00 +21°C° 0 mm 2 mps 643 mmHg 50%
    09:00 +24°C° 0 mm 1 mps 644 mmHg 43%
    10:00 +26°C° 0 mm 2 mps 644 mmHg 39%
    11:00 +27°C° 0 mm 2 mps 644 mmHg 36%
    12:00 +29°C° 0 mm 2 mps 644 mmHg 32%
    13:00 +29°C° 0.1 mm 2 mps 644 mmHg 29%
    14:00 +30°C° 0.1 mm 2 mps 643 mmHg 27%
    15:00 +31°C° 0.1 mm 2 mps 643 mmHg 25%
    16:00 +29°C° 0 mm 2 mps 643 mmHg 31%
    17:00 +28°C° 0 mm 3 mps 643 mmHg 37%
    18:00 +27°C° 0 mm 3 mps 642 mmHg 43%
    19:00 +25°C° 0 mm 3 mps 642 mmHg 47%
    20:00 +23°C° 0 mm 4 mps 642 mmHg 52%
    21:00 +21°C° 0 mm 4 mps 642 mmHg 57%
    22:00 +21°C° 0 mm 4 mps 642 mmHg 57%
    23:00 +20°C° 0 mm 3 mps 642 mmHg 58%

    29 August, Thursday

    Time Temperature Precipitation Wind Pressure Humidity
    00:00 +20°C° 0 mm 3 mps 643 mmHg 59%
    01:00 +19°C° 0 mm 3 mps 642 mmHg 60%
    02:00 +19°C° 0 mm 3 mps 642 mmHg 61%
    03:00 +18°C° 0 mm 2 mps 642 mmHg 61%
    04:00 +18°C° 0 mm 2 mps 642 mmHg 61%
    05:00 +18°C° 0 mm 2 mps 642 mmHg 61%
    06:00 +18°C° 0 mm 2 mps 642 mmHg 61%
    07:00 +20°C° 0 mm 2 mps 643 mmHg 54%
    08:00 +24°C° 0 mm 2 mps 643 mmHg 48%
    09:00 +26°C° 0 mm 2 mps 644 mmHg 41%
    10:00 +28°C° 0 mm 2 mps 644 mmHg 35%
    11:00 +29°C° 0 mm 3 mps 644 mmHg 30%
    12:00 +32°C° 0 mm 4 mps 644 mmHg 25%
    13:00 +31°C° 0 mm 3 mps 644 mmHg 24%
    14:00 +33°C° 0 mm 3 mps 643 mmHg 23%
    15:00 +33°C° 0 mm 3 mps 643 mmHg 21%
    16:00 +31°C° 0.2 mm 3 mps 642 mmHg 29%
    17:00 +29°C° 0.2 mm 2 mps 642 mmHg 36%
    18:00 +27°C° 0.2 mm 2 mps 641 mmHg 43%
    19:00 +26°C° 0.2 mm 2 mps 642 mmHg 48%
    20:00 +24°C° 0.2 mm 3 mps 642 mmHg 53%
    21:00 +22°C° 0.2 mm 3 mps 642 mmHg 58%
    22:00 +21°C° 0.1 mm 3 mps 642 mmHg 60%
    23:00 +20°C° 0.1 mm 3 mps 642 mmHg 62%

    30 August, Friday

    Time Temperature Precipitation Wind Pressure Humidity
    00:00 +19°C° 0.1 mm 3 mps 641 mmHg 64%
    01:00 +19°C° 0.1 mm 3 mps 641 mmHg 65%
    02:00 +18°C° 0.1 mm 2 mps 641 mmHg 66%
    03:00 +18°C° 0.1 mm 2 mps 641 mmHg 67%
    04:00 +18°C° 0.1 mm 2 mps 641 mmHg 68%
    05:00 +17°C° 0.1 mm 2 mps 641 mmHg 69%
    06:00 +17°C° 0.1 mm 2 mps 641 mmHg 70%
    07:00 +19°C° 0 mm 2 mps 641 mmHg 64%
    08:00 +21°C° 0 mm 2 mps 642 mmHg 57%
    09:00 +24°C° 0 mm 2 mps 642 mmHg 51%
    10:00 +25°C° 0.1 mm 2 mps 642 mmHg 47%
    11:00 +27°C° 0.1 mm 3 mps 643 mmHg 43%
    12:00 +28°C° 0.1 mm 3 mps 643 mmHg 38%
    13:00 +27°C° 0.8 mm 3 mps 642 mmHg 45%
    14:00 +25°C° 0.8 mm 3 mps 641 mmHg 52%
    15:00 +22°C° 0.8 mm 3 mps 639 mmHg 59%
    16:00 +22°C° 0.4 mm 4 mps 639 mmHg 61%
    17:00 +21°C° 0.4 mm 4 mps 639 mmHg 64%
    18:00 +21°C° 0.4 mm 4 mps 639 mmHg 67%
    19:00 +20°C° 0.4 mm 4 mps 640 mmHg 70%
    20:00 +19°C° 0.4 mm 4 mps 640 mmHg 73%
    21:00 +18°C° 0.4 mm 4 mps 640 mmHg 76%
    22:00 +17°C° 0.2 mm 4 mps 640 mmHg 77%
    23:00 +17°C° 0.2 mm 4 mps 640 mmHg 77%
    Show more